Location: Carbonear
(47.7333°N, 53.2500°W)
Time: 01:50:16
(UTC+00:00)

XW-2F - Pass Details

Date: 03 December 2022
Orbit: 471 x 485 km, 97.5° (Epoch: 08 February)

Event Time Altitude Azimuth Distance (km) Brightness Sun altitude
Rises 09:59:15 0° 14° (NNE) 2,532 ? -10.4°
Reaches altitude 10° 10:01:19 10° 17° (NNE) 1,651 ? -10.0°
Maximum altitude 10:04:52 71° 102° (ESE) 509 ? -9.5°
Drops below altitude 10° 10:08:23 10° 187° (S) 1,648 ? -8.9°
Sets 10:10:27 0° 189° (S) 2,527 ? -8.6°
